Volver al catálogo

NORBI

ActivoCienciaPO
NORAD 46494·PAYLOAD·🇷🇺 Russia

Lanzado Sep 28, 2020 desde Plesetsk Cosmodrome

Loading…

Próximos Pases (próximas 24 horas)

TLE

ActualizadoSource: Space-Track

Época: Sep 14, 2026, 14:49 UTC

1 46494U 20068J   26257.61741054  .00020550  00000-0  34168-3 0  9990
2 46494  97.8585 281.7110 0003449 291.2683  68.8200 15.52099664330065

Sigue NORBI en tiempo real con AllMySat

Download on the App Store